Location: Bamobli
(6.6379°N, 10.9396°W)
Time: 21:41:51
(UTC+00:00)

Envisat - Pass Details

Date: 12 March 2021
Orbit: 764 x 766 km, 98.1° (Epoch: 16 April)

Event Time Altitude Azimuth Distance (km) Brightness Sun altitude
Rises 06:14:15 0° 5° (N) 3,216 6.3 -10.1°
Reaches altitude 10° 06:16:34 10° 2° (N) 2,291 5.5 -9.5°
Maximum altitude 06:21:33 62° 283° (WNW) 858 3.0 -8.3°
Drops below altitude 10° 06:26:32 10° 202° (SSW) 2,295 5.3 -7.1°
Sets 06:28:52 0° 199° (SSW) 3,221 6.1 -6.5°
